Volver al catálogo

STARLINK-32447

ActivoComunicacionesVLEO
NORAD 61261·PAYLOAD·🇺🇸 United States

Lanzado Sep 25, 2024 desde Vandenberg Space Force Base

Loading…

Próximos Pases (próximas 24 horas)

TLE

ActualizadoSource: CelesTrak SupGP

Época: Sep 14, 2026, 20:46 UTC

1 61261C 24175U   26257.86576389  .00025036  00000+0  74006-3 0  2571
2 61261  53.1589  32.1854 0001229  82.2017 208.8964 15.34362007    15

Sigue STARLINK-32447 en tiempo real con AllMySat

Download on the App Store